[[{"header":{"parameterUnit":"m.s-1","parameterCategory":1,"la1":30.2991,"la2":30.254,"lo1":-89.0895,"lo2":-89.0444,"dx":0.0017,"dy":0.0017,"nx":28,"ny":28,"refTime":"2022-12-03T09:00:00:Z","depth":0,"parameterNumber":2,"parameterNumberName":"U-component_of_WINDS"},"data":[0,0,0,0,0,0,0,0,0,0,0,0,0,0,0,0,0,0,0,0,0,0,0,0,0,0,0,0,0,0,0,0,0,0,0,0,0,0,0,0,0,0,0,0,0,0,0,0,0,0,0,0,0,0,0,0,0,0,0.1152,0.1153,0,0.1242,0.1243,0.1244,0.1263,0.1262,0.1261,0.1261,0.1359,0.1362,0.1365,0,0,0,0,0,0,0,0,0,0,0,0,0,0.0998,0.1001,0.1152,0.1153,0.1154,0.1242,0.1243,0.1245,0.1263,0.1262,0.1261,0.126,0.1358,0.1362,0.1365,0,0,0,0,0,0,0,0,0,0,0,0,0,0.1075,0.1002,0.1151,0.1174,0.1176,0.1242,0.1243,0.1245,0.1263,0.1262,0.1261,0.126,0.1356,0.1361,0.1366,0.1417,0,0,0.1381,0.1383,0,0,0,0,0,0,0,0,0.107,0.108,0.1169,0.1172,0.1175,0.124,0.1225,0.1303,0.1263,0.123,0.1261,0.1259,0.132,0.1328,0.1348,0.1422,0.1426,0.1381,0.1384,0.1387,0.1388,0,0,0,0,0,0,0,0.1065,0.1077,0.1188,0.117,0.1174,0.118,0.119,0.124,0.1281,0.1233,0.1235,0.1245,0.1322,0.1343,0.135,0.1428,0.1381,0.1386,0.1389,0.1391,0.1548,0.1549,0,0,0,0,0,0,0.1055,0.1072,0.1185,0.119,0.1119,0.1184,0.1195,0.1221,0.128,0.1288,0.1246,0.1245,0.1335,0.1344,0.1354,0.1417,0.1386,0.1391,0.1394,0.1547,0.1548,0.155,0,0,0,0,0,0,0.1052,0.1065,0.1181,0.1132,0.1147,0.1188,0.1216,0.1223,0.1244,0.1289,0.1297,0.1259,0.1335,0.1347,0.1401,0.1421,0.1393,0.1398,0.1545,0.1547,0.1549,0.1545,0,0,0,0,0,0,0.1047,0.1064,0.1083,0.1132,0.1149,0.1226,0.1218,0.1225,0.1252,0.1252,0.1304,0.1312,0.1335,0.1393,0.1406,0.1427,0.1402,0.1544,0.1546,0.1548,0.1544,0.1547,0.1549,0,0,0,0,0,0.1042,0.108,0.1084,0.1097,0.1174,0.1227,0.1237,0.1261,0.1253,0.1273,0.1302,0.131,0.1417,0.1399,0.1413,0.1436,0.1543,0.1545,0.1548,0.1543,0.1546,0.1549,0,0,0,0,0,0,0.1035,0.1087,0.1092,0.1146,0.1182,0.123,0.1256,0.1264,0.1304,0.1303,0.1333,0.1344,0.1397,0.1422,0.1401,0.1489,0.1479,0.1485,0.147,0.1474,0.1477,0.147,0.1406,0,0,0,0,0,0.1039,0.1076,0.112,0.1164,0.1181,0.1215,0.1239,0.1254,0.1293,0.1309,0.1342,0.138,0.1422,0.145,0.1491,0.1547,0.1559,0.157,0.1573,0.1575,0.158,0.1611,0.1617,0.1559,0.1559,0.1559,0,0,0.1049,0.1082,0.1104,0.1163,0.1193,0.1231,0.1228,0.127,0.1299,0.1316,0.1368,0.1394,0.1439,0.1494,0.152,0.1516,0.1598,0.1578,0.158,0.1584,0.1615,0.162,0.1625,0.1561,0.156,0.156,0,0,0.1088,0.1116,0.1155,0.1184,0.1227,0.1249,0.1259,0.1305,0.1322,0.1374,0.1387,0.1423,0.1495,0.1526,0.1552,0.1599,0.1608,0.1612,0.1627,0.1657,0.1662,0.1666,0.1683,0.1689,0.1617,0.1617,0.1617,0,0.1095,0.1153,0.1175,0.1215,0.1241,0.1255,0.1296,0.1323,0.1378,0.1396,0.1391,0.148,0.1512,0.1574,0.1585,0.1605,0.1618,0.1607,0.1659,0.1663,0.1668,0.1684,0.1691,0.1617,0.1617,0.1617,0.1617,0,0.116,0.12,0.1227,0.1277,0.1306,0.1346,0.1375,0.1402,0.1414,0.1437,0.149,0.1528,0.1576,0.1592,0.1605,0.1656,0.1652,0.1653,0.1644,0.1673,0.1689,0.1696,0.1617,0.1617,0.1617,0.1617,0,0,0.1199,0.1259,0.1268,0.1291,0.1339,0.1371,0.1412,0.1457,0.1479,0.1517,0.1552,0.1611,0.1611,0.164,0.1656,0.1683,0.1718,0.168,0.1681,0.1686,0.1776,0.1776,0.1783,0.1723,0.1725,0.1726,0.1772,0,0.1243,0.1315,0.1335,0.1396,0.1433,0.1446,0.1481,0.1515,0.1537,0.1573,0.1598,0.1639,0.1636,0.1653,0.1679,0.1708,0.1736,0.1705,0.1758,0.1759,0.1747,0.1791,0.1792,0.1834,0.1779,0.178,0.1781,0,0.1305,0.1341,0.1405,0.1446,0.1463,0.1494,0.1537,0.157,0.1609,0.1623,0.1653,0.1667,0.1711,0.1699,0.176,0.1738,0.1761,0.1778,0.178,0.1787,0.1772,0.18,0.1848,0.1854,0.1791,0.179,0.1789,0,0.1326,0.1391,0.1437,0.1456,0.1506,0.1528,0.155,0.1587,0.1613,0.165,0.1667,0.171,0.1734,0.1767,0.1792,0.1781,0.1851,0.1841,0.1865,0.1865,0.1881,0.188,0.1934,0.1894,0.1894,0.1894,0.1894,0,0.1374,0.1413,0.1447,0.1476,0.1519,0.1542,0.1586,0.1608,0.1641,0.1675,0.1689,0.1721,0.1752,0.1789,0.1809,0.1856,0.1867,0.188,0.1885,0.1879,0.1878,0.1896,0.1894,0.1896,0.1895,0.1895,0.1895,0,0.1406,0.1431,0.1482,0.1524,0.1535,0.1566,0.1602,0.1631,0.1652,0.1695,0.1707,0.1741,0.1785,0.1812,0.1868,0.1882,0.1934,0.1938,0.192,0.1923,0.1945,0.1943,0.2013,0.2024,0.1977,0.1977,0.1977,0,0.1435,0.1465,0.1509,0.1532,0.1554,0.1591,0.1616,0.1639,0.1666,0.171,0.1734,0.1777,0.1814,0.1882,0.1913,0.1956,0.1961,0.1983,0.1968,0.1961,0.1962,0.196,0.1963,0.1986,0.1986,0.1987,0.1987,0,0.1485,0.1495,0.153,0.1569,0.1598,0.1631,0.1663,0.1682,0.1711,0.1739,0.1782,0.181,0.1866,0.1909,0.1954,0.1978,0.1988,0.1991,0.1999,0.1994,0.1982,0.1989,0.1927,0.199,0.1989,0.1989,0.1989,0.1989,0.1517,0.1543,0.1578,0.1617,0.1643,0.1672,0.1701,0.1725,0.1761,0.1806,0.1818,0.1863,0.1901,0.1961,0.1986,0.2022,0.202,0.2031,0.2034,0.2037,0.2037,0.1975,0.2031,0.2031,0.2031,0.2031,0.2031,0,0.1567,0.1589,0.1624,0.1668,0.1698,0.1702,0.1738,0.1763,0.1802,0.1835,0.1869,0.1919,0.196,0.1993,0.2036,0.2059,0.2064,0.207,0.2069,0.2074,0.2037,0.2026,0.2064,0.2064,0.2064,0.2064,0.2064,0.2064,0.1597,0.1642,0.1655,0.1714,0.1736,0.1779,0.1799,0.1826,0.1852,0.1906,0.194,0.196,0.1994,0.2039,0.2077,0.2086,0.2101,0.2106,0.2115,0.208,0.2077,0.2073,0.2063,0.2109,0.2109,0.215,0.215,0.215]},{"header":{"parameterUnit":"m.s-1","parameterCategory":1,"la1":30.2991,"la2":30.254,"lo1":-89.0895,"lo2":-89.0444,"dx":0.0017,"dy":0.0017,"nx":28,"ny":28,"refTime":"2022-12-03T09:00:00:Z","depth":0,"parameterNumber":3,"parameterNumberName":"V-component_of_WINDS"},"data":[0,0,0,0,0,0,0,0,0,0,0,0,0,0,0,0,0,0,0,0,0,0,0,0,0,0,0,0,0,0,0,0,0,0,0,0,0,0,0,0,0,0,0,0,0,0,0,0,0,0,0,0,0,0,0,0,0,0,1.3356,1.3354,0,1.3234,1.3233,1.3232,1.3158,1.3158,1.3158,1.3157,1.3029,1.3026,1.3023,0,0,0,0,0,0,0,0,0,0,0,0,0,1.3518,1.3515,1.3356,1.3354,1.3353,1.3235,1.3233,1.3231,1.3158,1.3158,1.3158,1.3157,1.303,1.3026,1.3023,0,0,0,0,0,0,0,0,0,0,0,0,0,1.3427,1.3515,1.3356,1.3302,1.3296,1.3235,1.3233,1.3231,1.3159,1.3158,1.3158,1.3157,1.3031,1.3027,1.3022,1.3004,0,0,1.3008,1.3006,0,0,0,0,0,0,0,0,1.3432,1.3421,1.3312,1.3306,1.3299,1.3211,1.3243,1.3155,1.3159,1.3211,1.3157,1.3157,1.309,1.308,1.3059,1.2998,1.2992,1.3008,1.3005,1.3003,1.3002,0,0,0,0,0,0,0,1.3439,1.3426,1.3308,1.331,1.3302,1.3282,1.3269,1.3226,1.3154,1.3206,1.3201,1.3187,1.3086,1.3063,1.3055,1.299,1.3008,1.3004,1.3001,1.2999,1.2905,1.2905,0,0,0,0,0,0,1.3454,1.3432,1.3311,1.3304,1.3366,1.328,1.3265,1.324,1.3155,1.3141,1.3188,1.3184,1.3071,1.3061,1.305,1.302,1.3003,1.2999,1.2996,1.2904,1.2905,1.2905,0,0,0,0,0,0,1.3458,1.3444,1.3316,1.3366,1.3348,1.3277,1.325,1.3238,1.3215,1.3141,1.3127,1.3178,1.3071,1.3057,1.3015,1.3015,1.2996,1.2992,1.2904,1.2904,1.2905,1.2963,0,0,0,0,0,0,1.3463,1.3446,1.344,1.3367,1.3346,1.3286,1.325,1.3236,1.3207,1.3202,1.3128,1.3115,1.3069,1.3023,1.3011,1.3008,1.2989,1.2904,1.2904,1.2905,1.2961,1.2965,1.2969,0,0,0,0,0,1.3469,1.3461,1.344,1.3426,1.3337,1.3286,1.3274,1.3222,1.3208,1.3199,1.3152,1.3118,1.3018,1.3019,1.3005,1.3001,1.2903,1.2904,1.2905,1.2959,1.2964,1.2969,0,0,0,0,0,0,1.3535,1.345,1.3426,1.3395,1.3348,1.3274,1.3262,1.323,1.3185,1.3182,1.3118,1.3102,1.3066,1.3029,1.3033,1.2977,1.2956,1.2954,1.3002,1.3007,1.3011,1.302,1.2985,0,0,0,0,0,1.3546,1.3513,1.344,1.3419,1.3397,1.3334,1.3309,1.3273,1.3222,1.3201,1.3151,1.3101,1.3057,1.303,1.2987,1.2955,1.2937,1.2945,1.295,1.2954,1.2952,1.2929,1.2932,1.2907,1.2907,1.2907,0,0,1.3568,1.3518,1.3501,1.3431,1.3391,1.3355,1.3318,1.3283,1.3255,1.3196,1.3153,1.3114,1.3054,1.3017,1.2998,1.2985,1.2955,1.2954,1.2958,1.2954,1.293,1.2933,1.2935,1.2907,1.2907,1.2907,0,0,1.359,1.355,1.3526,1.3487,1.3426,1.3384,1.3378,1.3308,1.328,1.3237,1.3191,1.3156,1.3084,1.3042,1.3011,1.3015,1.2981,1.3003,1.3024,1.3003,1.3005,1.3007,1.3005,1.3006,1.3002,1.3002,1.3002,0,1.3624,1.3571,1.3518,1.3485,1.3455,1.34,1.3374,1.3338,1.3266,1.3245,1.3233,1.3139,1.3095,1.3045,1.3046,1.3024,1.3013,1.301,1.301,1.301,1.3011,1.3009,1.3009,1.3005,1.3004,1.3004,1.3004,0,1.3615,1.3579,1.3567,1.35,1.3468,1.3439,1.3379,1.3353,1.3319,1.3278,1.3232,1.3177,1.312,1.3106,1.3073,1.3051,1.3045,1.3022,1.3,1.3017,1.3014,1.3013,1.3009,1.3008,1.3007,1.3006,0,0,1.3674,1.3578,1.3574,1.3541,1.347,1.344,1.3408,1.3353,1.333,1.3282,1.3251,1.3191,1.3168,1.3133,1.3095,1.3077,1.308,1.3055,1.3052,1.306,1.3049,1.3066,1.3066,1.3057,1.3057,1.3057,1.3053,0,1.3684,1.3624,1.3575,1.3532,1.3497,1.3444,1.3414,1.3366,1.3326,1.3288,1.3243,1.32,1.3175,1.3153,1.3133,1.3084,1.3076,1.3084,1.3025,1.3024,1.3041,1.3065,1.3083,1.3082,1.3052,1.3052,1.3052,0,1.3687,1.3641,1.3596,1.3527,1.351,1.3485,1.3429,1.3395,1.3338,1.331,1.3271,1.323,1.319,1.3173,1.3115,1.3121,1.3094,1.3066,1.3065,1.3056,1.3038,1.3055,1.3081,1.3081,1.305,1.305,1.305,0,1.3732,1.3659,1.3622,1.3596,1.3515,1.3498,1.3463,1.3406,1.3376,1.3327,1.3306,1.3253,1.3223,1.3182,1.3127,1.312,1.3074,1.3053,1.3047,1.3049,1.3039,1.304,1.306,1.3025,1.3025,1.3025,1.3025,0,1.3746,1.372,1.3641,1.3618,1.3586,1.3528,1.3497,1.3457,1.3407,1.3373,1.3324,1.3293,1.3223,1.3183,1.314,1.3098,1.3085,1.3059,1.3048,1.3063,1.3066,1.3043,1.3041,1.3025,1.3025,1.3025,1.3025,0,1.379,1.3736,1.3692,1.3619,1.3599,1.3579,1.3515,1.3489,1.3446,1.3404,1.3391,1.3322,1.3273,1.3214,1.3145,1.3116,1.3076,1.306,1.3096,1.3089,1.3086,1.3086,1.309,1.3087,1.3057,1.3057,1.3058,0,1.3802,1.378,1.3705,1.3679,1.3646,1.3606,1.3575,1.3516,1.3485,1.3418,1.34,1.3347,1.3301,1.3223,1.3166,1.3112,1.3093,1.3098,1.3085,1.31,1.309,1.3092,1.3088,1.3102,1.3102,1.3103,1.3103,0,1.3827,1.3802,1.376,1.3708,1.3672,1.3628,1.3582,1.3563,1.3495,1.3462,1.3411,1.3376,1.3305,1.3252,1.3191,1.3152,1.3115,1.3108,1.3103,1.3118,1.3138,1.3125,1.3104,1.3108,1.3107,1.3107,1.3107,1.3107,1.3853,1.3831,1.3774,1.3728,1.3688,1.3645,1.3617,1.3571,1.3528,1.3467,1.3434,1.3383,1.3324,1.3239,1.3201,1.3159,1.3146,1.314,1.3138,1.3137,1.3141,1.3147,1.3147,1.3147,1.3147,1.3147,1.3147,0,1.3874,1.3835,1.3794,1.3731,1.3694,1.3665,1.3612,1.3582,1.3539,1.3488,1.3444,1.3384,1.3332,1.3271,1.3213,1.3191,1.3173,1.3178,1.3178,1.3169,1.3156,1.3165,1.3194,1.3194,1.3194,1.3194,1.3194,1.3194,1.3881,1.3841,1.3809,1.3747,1.3707,1.3658,1.363,1.3589,1.3548,1.3485,1.3441,1.3402,1.3346,1.3285,1.3234,1.3217,1.3198,1.3208,1.3186,1.3174,1.317,1.3167,1.3174,1.3204,1.3204,1.3202,1.3202,1.3202]}]]